Regional Weather Roundup
Issued by NWS Newport/Morehead, NC

Current Version | Previous Version | Text Only | Print | Product List | Glossary On
Versions: 1 2 3 4 5 6 7 8 9 10 11 12 13 14 15 16 17 18 19 20 21 22 23 24 25 26 27 28 29 30 31 32 33 34 35 36 37 38 39 40 41 42 43 44 45 46 47 48 49 50
000 ASUS42 KMHX 240526 RWRMHX WEATHER ROUNDUP FOR EASTERN NORTH CAROLINA NATIONAL WEATHER SERVICE NEWPORT/MOREHEAD CITY NC 100 AM EDT SUN SEP 24 2017 NOTE: "FAIR" INDICATES FEW OR NO CLOUDS BELOW 12,000 FEET WITH NO SIGNIFICANT WEATHER AND/OR OBSTRUCTIONS TO VISIBILITY NCZ015>017-031-032-045>047-102-103-240600- NORTH COAST CITY SKY/WX TMP DP RH WIND PRES REMARKS EDENTON CLEAR 70 67 92 CALM 30.05F ELIZABETH CITY CLEAR 71 70 96 N7 30.05S KITTY HAWK NOT AVBL MANTEO CLEAR 70 66 87 NE9 30.05S $$ NCZ045>047-081-094-103-104-240600- CENTRAL COAST CITY SKY/WX TMP DP RH WIND PRES REMARKS FRISCO MOCLDY 72 69 90 VRB7 30.03F $$ NCZ095-097-098-100-101-240600- SOUTHERN COAST CITY SKY/WX TMP DP RH WIND PRES REMARKS BEAUFORT MOCLDY 73 71 93 NE7 30.01F CEDAR ISLAND NOT AVBL JACKSONVILLE PTCLDY 72 70 93 N5 30.02F PINEY ISLAND N/A N/A N/A N/A NE16 30.02F WILMINGTON CLEAR 71 69 93 NE6 30.02S $$ NCZ011>013-027>030-043-044-078>080-089-090>093-098-240600- COASTAL PLAIN CITY SKY/WX TMP DP RH WIND PRES REMARKS AHOSKIE CLEAR 66 66 99 CALM 30.06F CLINTON CLEAR 72 68 87 E3 30.04F ELIZABETHTOWN NOT AVBL GOLDSBORO CLEAR 69 69 100 CALM 30.03F GREENVILLE CLEAR 70 68 94 CALM 30.07F HAVELOCK PTCLDY 74 70 87 NE10 30.03F KENANSVILLE PTCLDY 66 66 100 CALM 30.05S FOG KINSTON PTCLDY 67 65 94 N3 30.05F NEW BERN PTCLDY 71 69 93 NE6 30.05S RICHLANDS PTCLDY 67 66 97 CALM 30.04S ROCKY MOUNT CLEAR 66 66 100 CALM 30.07R WASHINGTON PTCLDY 67 66 97 CALM 30.06S WHITEVILLE PTCLDY 68 66 94 CALM 30.02S $$ AMZ130-135-150-152-154-156-158-170-250-252-270-ANZ085-086-088-633-658-670-240600- MARINE OBSERVATIONS STATION/POSITION TIME TEMP WIND PRES WAVE SWELL AIR SEA DIR/SP/G HT/PER HT/PER (UTC) (F) (DEG/KT/KT) (MB) (FT/S) (FT/S) CHESAPEAKE LIGHT NOT AVBL 64 E VA BEACH 0450 69 69 10/ 6/ 8 1017.6 9/13 8/13 DUCK 0500 73 76 60/ 11/ 13 1017.0 2 E DUCK 0500 76 N/A 5/15 3/15 OREGON INLET 0500 71 78 30/ 8/ 10 1017.0 13E OREGON INLT 0448 74 N/A 7/12 7/12 HATTERAS CG 0500 72 79 60/ 6/ 10 1016.6 DIAMOND BUOY 0450 72 75 30/ 16/ 17 1016.0 8/15 8/15 CAPE LOOKOUT 0500 75 40/ 21/ 22 1016.0 BEAUFORT LAB 0500 74 77 50/ 7/ 10 1015.8 30 SE NEW RVR IN 0508 77 60/ 17/ 21 1015.4 30 SE NEW RVR IN NOT AVBL 27 SE WRIGHTSVLE 0508 77 80 70/ 16/ 21 1015.4 5 SE WRIGHTSVLE NOT AVBL 225 S CAPE HAT 0450 79 80 50/ 19/ 23 1012.0 15/14 13/14 41 SE CHARLESTON 0510 80 82 40/ 14/ 17 1014.0 $$

USA.gov is the U.S. government's official web portal to all federal, state and local government web resources and services.